| time (UTC) | temp F | wind direction | speed MPH | gust MPH | rain 1hr in | rain 24hr in | rain mn in | humidity % | barometer mb |
| 20260510234054 | 77 | 177 | 4.0 | 8.0 | 0.00 | 0.02 | 0.02 | 63 | 986.0 |
| 20260510233556 | 77 | 198 | 4.0 | 7.0 | 0.00 | 0.02 | 0.02 | 63 | 986.0 |
| 20260510233053 | 77 | 199 | 4.0 | 7.0 | 0.00 | 0.02 | 0.02 | 62 | 986.0 |
| 20260510232552 | 78 | 193 | 3.0 | 7.0 | 0.00 | 0.02 | 0.02 | 62 | 986.1 |
| 20260510232052 | 78 | 187 | 3.0 | 7.0 | 0.00 | 0.02 | 0.02 | 62 | 986.0 |
| 20260510231557 | 78 | 211 | 4.0 | 8.0 | 0.00 | 0.02 | 0.02 | 62 | 986.0 |
| 20260510231052 | 78 | 173 | 5.0 | 8.0 | 0.00 | 0.02 | 0.02 | 63 | 986.0 |
| 20260510230553 | 78 | 182 | 3.0 | 8.0 | 0.00 | 0.02 | 0.02 | 63 | 985.9 |
| 20260510230051 | 77 | 200 | 4.0 | 9.0 | 0.00 | 0.02 | 0.02 | 63 | 985.9 |
| 20260510225553 | 77 | 178 | 4.0 | 9.0 | 0.00 | 0.02 | 0.02 | 63 | 986.0 |
| 20260510225054 | 77 | 151 | 5.0 | 9.0 | 0.00 | 0.02 | 0.02 | 63 | 986.0 |
| 20260510224552 | 77 | 196 | 4.0 | 9.0 | 0.00 | 0.02 | 0.02 | 64 | 986.0 |
| 20260510224050 | 77 | 190 | 4.0 | 9.0 | 0.00 | 0.02 | 0.02 | 63 | 986.0 |
| 20260510223550 | 77 | 185 | 5.0 | 8.0 | 0.00 | 0.02 | 0.02 | 63 | 986.2 |
| 20260510223050 | 77 | 174 | 5.0 | 10.0 | 0.00 | 0.02 | 0.02 | 63 | 986.1 |
| 20260510222550 | 77 | 205 | 4.0 | 10.0 | 0.00 | 0.02 | 0.02 | 62 | 986.2 |
| 20260510222049 | 78 | 167 | 5.0 | 10.0 | 0.00 | 0.02 | 0.02 | 62 | 986.2 |
| 20260510221548 | 77 | 125 | 5.0 | 10.0 | 0.00 | 0.02 | 0.02 | 63 | 986.3 |
| 20260510221047 | 77 | 198 | 4.0 | 7.0 | 0.00 | 0.02 | 0.02 | 63 | 986.3 |
| 20260510220549 | 77 | 160 | 4.0 | 9.0 | 0.00 | 0.02 | 0.02 | 65 | 986.3 |
| 20260510220048 | 76 | 223 | 3.0 | 9.0 | 0.00 | 0.02 | 0.02 | 64 | 986.3 |
| 20260510215547 | 77 | 174 | 5.0 | 9.0 | 0.00 | 0.02 | 0.02 | 64 | 986.3 |
| 20260510215046 | 77 | 194 | 5.0 | 9.0 | 0.00 | 0.02 | 0.02 | 63 | 986.3 |
| 20260510214546 | 77 | 208 | 3.0 | 8.0 | 0.00 | 0.02 | 0.02 | 64 | 986.4 |
| 20260510214046 | 76 | 182 | 3.0 | 8.0 | 0.00 | 0.02 | 0.02 | 65 | 986.4 |
| 20260510213544 | 77 | 188 | 5.0 | 12.0 | 0.00 | 0.02 | 0.02 | 64 | 986.4 |
| 20260510213055 | 76 | 167 | 6.0 | 12.0 | 0.00 | 0.02 | 0.02 | 64 | 986.4 |
| 20260510212544 | 76 | 140 | 6.0 | 10.0 | 0.00 | 0.02 | 0.02 | 64 | 986.4 |
| 20260510212044 | 77 | 156 | 4.0 | 10.0 | 0.00 | 0.02 | 0.02 | 63 | 986.4 |
| 20260510211546 | 76 | 153 | 4.0 | 7.0 | 0.00 | 0.02 | 0.02 | 65 | 986.5 |
| 20260510211044 | 76 | 234 | 4.0 | 9.0 | 0.00 | 0.02 | 0.02 | 64 | 986.6 |
| 20260510210542 | 76 | 218 | 5.0 | 9.0 | 0.00 | 0.02 | 0.02 | 65 | 986.6 |
| 20260510210046 | 76 | 190 | 4.0 | 10.0 | 0.00 | 0.02 | 0.02 | 65 | 986.6 |
| 20260510205541 | 76 | 154 | 6.0 | 10.0 | 0.00 | 0.02 | 0.02 | 65 | 986.7 |
| 20260510205041 | 75 | 180 | 5.0 | 11.0 | 0.00 | 0.02 | 0.02 | 66 | 986.6 |
| 20260510204551 | 75 | 163 | 5.0 | 9.0 | 0.00 | 0.02 | 0.02 | 66 | 986.7 |
| 20260510204040 | 75 | 229 | 5.0 | 9.0 | 0.00 | 0.02 | 0.02 | 67 | 986.7 |
| 20260510203540 | 75 | 168 | 4.0 | 11.0 | 0.00 | 0.02 | 0.02 | 67 | 986.7 |
| 20260510203040 | 75 | 107 | 4.0 | 11.0 | 0.00 | 0.02 | 0.02 | 68 | 986.7 |
| 20260510202542 | 74 | 204 | 5.0 | 9.0 | 0.00 | 0.02 | 0.02 | 67 | 986.8 |
| 20260510202039 | 74 | 169 | 6.0 | 11.0 | 0.00 | 0.02 | 0.02 | 67 | 986.8 |
| 20260510201540 | 75 | 168 | 4.0 | 10.0 | 0.00 | 0.02 | 0.02 | 67 | 986.9 |
| 20260510201042 | 75 | 117 | 3.0 | 10.0 | 0.00 | 0.02 | 0.02 | 67 | 986.8 |
| 20260510200540 | 75 | 164 | 6.0 | 10.0 | 0.00 | 0.02 | 0.02 | 66 | 986.9 |
| 20260510200040 | 75 | 163 | 4.0 | 8.0 | 0.00 | 0.02 | 0.02 | 67 | 986.8 |
| 20260510195538 | 75 | 196 | 5.0 | 8.0 | 0.00 | 0.02 | 0.02 | 67 | 986.8 |
| 20260510195042 | 75 | 167 | 5.0 | 9.0 | 0.00 | 0.02 | 0.02 | 67 | 986.8 |
| 20260510194542 | 75 | 181 | 3.0 | 10.0 | 0.00 | 0.02 | 0.02 | 68 | 986.8 |
| 20260510194039 | 75 | 165 | 4.0 | 11.0 | 0.00 | 0.02 | 0.02 | 68 | 986.8 |
| 20260510193535 | 74 | 138 | 6.0 | 12.0 | 0.00 | 0.02 | 0.02 | 69 | 986.9 |
| 20260510193034 | 74 | 175 | 7.0 | 12.0 | 0.00 | 0.02 | 0.02 | 68 | 986.9 |
| 20260510192534 | 74 | 181 | 4.0 | 11.0 | 0.00 | 0.02 | 0.02 | 69 | 986.8 |
| 20260510192033 | 73 | 175 | 5.0 | 11.0 | 0.00 | 0.02 | 0.02 | 69 | 986.8 |
| 20260510191534 | 73 | 184 | 5.0 | 10.0 | 0.00 | 0.02 | 0.02 | 70 | 986.9 |
| 20260510191034 | 73 | 188 | 6.0 | 10.0 | 0.00 | 0.02 | 0.02 | 69 | 986.9 |
| 20260510190534 | 73 | 188 | 5.0 | 10.0 | 0.00 | 0.02 | 0.02 | 71 | 986.9 |
| 20260510190038 | 73 | 180 | 6.0 | 11.0 | 0.00 | 0.02 | 0.02 | 69 | 987.0 |
| 20260510185530 | 74 | 165 | 6.0 | 12.0 | 0.00 | 0.02 | 0.02 | 69 | 986.9 |
| 20260510185034 | 74 | 203 | 5.0 | 10.0 | 0.00 | 0.02 | 0.02 | 68 | 986.9 |
| 20260510184528 | 74 | 188 | 3.0 | 8.0 | 0.00 | 0.02 | 0.02 | 70 | 986.9 |
| 20260510184027 | 73 | 178 | 4.0 | 8.0 | 0.00 | 0.02 | 0.02 | 71 | 986.9 |
| 20260510183525 | 72 | 180 | 5.0 | 8.0 | 0.00 | 0.02 | 0.02 | 70 | 986.9 |
| 20260510183025 | 72 | 195 | 3.0 | 7.0 | 0.00 | 0.02 | 0.02 | 71 | 987.0 |
| 20260510182522 | 72 | 200 | 3.0 | 7.0 | 0.00 | 0.02 | 0.02 | 71 | 986.9 |
| 20260510182020 | 71 | 190 | 2.0 | 6.0 | 0.00 | 0.02 | 0.02 | 71 | 986.9 |
| 20260510181538 | 71 | 192 | 4.0 | 7.0 | 0.00 | 0.02 | 0.02 | 73 | 987.1 |
| 20260510181018 | 70 | 180 | 4.0 | 7.0 | 0.00 | 0.02 | 0.02 | 73 | 987.0 |
| 20260510180517 | 70 | 181 | 3.0 | 6.0 | 0.00 | 0.02 | 0.02 | 72 | 987.0 |
| 20260510180028 | 70 | 182 | 3.0 | 6.0 | 0.00 | 0.02 | 0.02 | 74 | 987.1 |
| 20260510175514 | 69 | 178 | 3.0 | 6.0 | 0.00 | 0.02 | 0.02 | 76 | 987.1 |
| 20260510175013 | 68 | 178 | 2.0 | 5.0 | 0.00 | 0.02 | 0.02 | 77 | 987.1 |
| 20260510174512 | 67 | 180 | 3.0 | 6.0 | 0.00 | 0.02 | 0.02 | 78 | 987.1 |
| 20260510174013 | 67 | 179 | 3.0 | 6.0 | 0.00 | 0.02 | 0.02 | 81 | 987.1 |
| 20260510173508 | 66 | 175 | 3.0 | 7.0 | 0.00 | 0.02 | 0.02 | 83 | 987.0 |
| 20260510173012 | 65 | 176 | 4.0 | 8.0 | 0.00 | 0.02 | 0.02 | 85 | 987.0 |
| 20260510172506 | 64 | 171 | 3.0 | 7.0 | 0.00 | 0.02 | 0.02 | 88 | 986.9 |
| 20260510172004 | 63 | 178 | 2.0 | 5.0 | 0.00 | 0.02 | 0.02 | 92 | 987.0 |
| 20260510171503 | 62 | 175 | 2.0 | 6.0 | 0.00 | 0.02 | 0.02 | 95 | 987.0 |
| 20260510171001 | 61 | 173 | 3.0 | 6.0 | 0.00 | 0.02 | 0.02 | 97 | 987.0 |
| 20260510170600 | 61 | 183 | 2.0 | 6.0 | 0.00 | 0.02 | 0.02 | 97 | 987.0 |
| 20260510170104 | 60 | 176 | 1.0 | 5.0 | 0.00 | 0.02 | 0.02 | 97 | 987.0 |
| 20260510165557 | 60 | 182 | 2.0 | 5.0 | 0.00 | 0.02 | 0.02 | 97 | 987.1 |
| 20260510165055 | 60 | 142 | 2.0 | 5.0 | 0.00 | 0.02 | 0.02 | 97 | 987.1 |
| 20260510164610 | 59 | 86 | 1.0 | 5.0 | 0.00 | 0.02 | 0.02 | 97 | 987.1 |
| 20260510164054 | 59 | 172 | 1.0 | 6.0 | 0.00 | 0.02 | 0.02 | 97 | 987.0 |
| 20260510163553 | 59 | 167 | 3.0 | 5.0 | 0.00 | 0.02 | 0.02 | 97 | 987.1 |
| 20260510163053 | 58 | 211 | 1.0 | 3.0 | 0.00 | 0.02 | 0.02 | 97 | 987.1 |
| 20260510162551 | 58 | 211 | 0.0 | 3.0 | 0.01 | 0.02 | 0.02 | 97 | 987.0 |
| 20260510162052 | 57 | 211 | 0.0 | 4.0 | 0.01 | 0.02 | 0.02 | 97 | 987.0 |
| 20260510161549 | 57 | 211 | 1.0 | 4.0 | 0.01 | 0.02 | 0.02 | 97 | 987.0 |
| 20260510161048 | 56 | 218 | 1.0 | 4.0 | 0.01 | 0.02 | 0.02 | 97 | 987.0 |
| 20260510160548 | 56 | 218 | 0.0 | 4.0 | 0.01 | 0.02 | 0.02 | 97 | 986.9 |
| 20260510160046 | 56 | 218 | 1.0 | 4.0 | 0.01 | 0.02 | 0.02 | 97 | 986.9 |
| 20260510155545 | 56 | 221 | 0.0 | 0.0 | 0.01 | 0.02 | 0.02 | 97 | 987.0 |
| 20260510155044 | 55 | 221 | 0.0 | 0.0 | 0.01 | 0.02 | 0.02 | 97 | 987.0 |
| 20260510154544 | 55 | 221 | 0.0 | 0.0 | 0.01 | 0.02 | 0.02 | 97 | 987.0 |
| 20260510154043 | 55 | 221 | 0.0 | 0.0 | 0.01 | 0.02 | 0.02 | 97 | 987.0 |
| 20260510153541 | 55 | 221 | 0.0 | 0.0 | 0.01 | 0.02 | 0.02 | 97 | 987.1 |
| 20260510153047 | 55 | 221 | 0.0 | 0.0 | 0.01 | 0.02 | 0.02 | 97 | 987.0 |
| 20260510152540 | 55 | 221 | 0.0 | 0.0 | 0.00 | 0.01 | 0.01 | 97 | 987.1 |
| 20260510152040 | 54 | 221 | 0.0 | 0.0 | 0.00 | 0.01 | 0.01 | 97 | 987.0 |
| 20260510151538 | 54 | 221 | 0.0 | 0.0 | 0.00 | 0.01 | 0.01 | 96 | 987.1 |
| 20260510151037 | 54 | 221 | 0.0 | 0.0 | 0.00 | 0.01 | 0.01 | 96 | 987.0 |
| 20260510150538 | 54 | 229 | 0.0 | 0.0 | 0.01 | 0.01 | 0.01 | 96 | 987.1 |
| 20260510150035 | 54 | 229 | 0.0 | 0.0 | 0.01 | 0.01 | 0.01 | 97 | 987.1 |
| 20260510145533 | 54 | 198 | 0.0 | 0.0 | 0.01 | 0.01 | 0.01 | 96 | 987.1 |
| 20260510145033 | 54 | 214 | 0.0 | 0.0 | 0.01 | 0.01 | 0.01 | 96 | 987.1 |
| 20260510144544 | 54 | 214 | 0.0 | 0.0 | 0.01 | 0.01 | 0.01 | 96 | 987.1 |
| 20260510144032 | 54 | 214 | 0.0 | 0.0 | 0.01 | 0.01 | 0.01 | 96 | 987.0 |
| 20260510143530 | 54 | 214 | 0.0 | 0.0 | 0.01 | 0.01 | 0.01 | 97 | 987.0 |
| 20260510143030 | 54 | 214 | 0.0 | 0.0 | 0.01 | 0.01 | 0.01 | 96 | 987.0 |
| 20260510142529 | 54 | 214 | 0.0 | 0.0 | 0.01 | 0.01 | 0.01 | 96 | 986.9 |
| 20260510142028 | 54 | 214 | 0.0 | 0.0 | 0.01 | 0.01 | 0.01 | 96 | 987.0 |
| 20260510141528 | 54 | 214 | 0.0 | 0.0 | 0.01 | 0.01 | 0.01 | 96 | 986.9 |
| 20260510141031 | 54 | 214 | 0.0 | 0.0 | 0.01 | 0.01 | 0.01 | 96 | 987.1 |
| 20260510140527 | 54 | 214 | 0.0 | 0.0 | 0.00 | 0.00 | 0.00 | 96 | 987.0 |
| 20260510140028 | 54 | 214 | 0.0 | 0.0 | 0.00 | 0.00 | 0.00 | 96 | 987.0 |
| 20260510135527 | 54 | 214 | 0.0 | 0.0 | 0.00 | 0.00 | 0.00 | 96 | 987.0 |
| 20260510135023 | 54 | 214 | 0.0 | 0.0 | 0.00 | 0.00 | 0.00 | 96 | 986.8 |
| 20260510134523 | 54 | 214 | 0.0 | 0.0 | 0.00 | 0.00 | 0.00 | 96 | 986.8 |
| 20260510134022 | 54 | 214 | 0.0 | 0.0 | 0.00 | 0.00 | 0.00 | 96 | 986.8 |
| 20260510133520 | 54 | 214 | 0.0 | 0.0 | 0.00 | 0.00 | 0.00 | 96 | 986.8 |
| 20260510133020 | 54 | 214 | 0.0 | 0.0 | 0.00 | 0.00 | 0.00 | 96 | 986.8 |
| 20260510132519 | 54 | 214 | 0.0 | 0.0 | 0.00 | 0.00 | 0.00 | 96 | 986.7 |
| 20260510132019 | 54 | 214 | 0.0 | 0.0 | 0.00 | 0.00 | 0.00 | 96 | 986.7 |
| 20260510131518 | 54 | 214 | 0.0 | 1.0 | 0.00 | 0.00 | 0.00 | 96 | 986.7 |
| 20260510131018 | 54 | 214 | 0.0 | 1.0 | 0.00 | 0.00 | 0.00 | 96 | 986.7 |
| 20260510130519 | 54 | 214 | 0.0 | 1.0 | 0.00 | 0.00 | 0.00 | 96 | 986.7 |
| 20260510130018 | 54 | 214 | 0.0 | 0.0 | 0.00 | 0.00 | 0.00 | 96 | 986.6 |
| 20260510125518 | 54 | 214 | 0.0 | 0.0 | 0.00 | 0.00 | 0.00 | 96 | 986.7 |
| 20260510125021 | 54 | 214 | 0.0 | 0.0 | 0.00 | 0.00 | 0.00 | 96 | 986.7 |
| 20260510124517 | 54 | 214 | 0.0 | 0.0 | 0.00 | 0.00 | 0.00 | 96 | 986.5 |
| 20260510124017 | 54 | 214 | 0.0 | 0.0 | 0.00 | 0.00 | 0.00 | 96 | 986.5 |
| 20260510123516 | 54 | 214 | 0.0 | 0.0 | 0.00 | 0.00 | 0.00 | 96 | 986.5 |
| 20260510123015 | 54 | 214 | 0.0 | 0.0 | 0.00 | 0.00 | 0.00 | 96 | 986.5 |
| 20260510122518 | 54 | 214 | 0.0 | 0.0 | 0.00 | 0.00 | 0.00 | 96 | 986.4 |
| 20260510122019 | 54 | 214 | 0.0 | 0.0 | 0.00 | 0.00 | 0.00 | 96 | 986.3 |
| 20260510121515 | 54 | 214 | 0.0 | 0.0 | 0.00 | 0.00 | 0.00 | 96 | 986.3 |
| 20260510121019 | 54 | 214 | 0.0 | 0.0 | 0.00 | 0.00 | 0.00 | 96 | 986.2 |
| 20260510120519 | 54 | 214 | 0.0 | 0.0 | 0.00 | 0.00 | 0.00 | 96 | 986.2 |
| 20260510120016 | 54 | 214 | 0.0 | 0.0 | 0.00 | 0.00 | 0.00 | 96 | 986.2 |
| 20260510115515 | 54 | 214 | 0.0 | 0.0 | 0.00 | 0.00 | 0.00 | 96 | 986.2 |
| 20260510115018 | 54 | 214 | 0.0 | 0.0 | 0.00 | 0.00 | 0.00 | 96 | 986.0 |
| 20260510114515 | 54 | 214 | 0.0 | 0.0 | 0.00 | 0.00 | 0.00 | 96 | 986.0 |
| 20260510114014 | 54 | 214 | 0.0 | 0.0 | 0.00 | 0.00 | 0.00 | 96 | 986.0 |
| 20260510113514 | 54 | 214 | 0.0 | 0.0 | 0.00 | 0.00 | 0.00 | 96 | 985.9 |
| 20260510113019 | 54 | 214 | 0.0 | 0.0 | 0.00 | 0.00 | 0.00 | 96 | 986.0 |
| 20260510112517 | 54 | 214 | 0.0 | 0.0 | 0.00 | 0.00 | 0.00 | 96 | 986.0 |
| 20260510112018 | 54 | 214 | 0.0 | 0.0 | 0.00 | 0.00 | 0.00 | 96 | 986.1 |
| 20260510111514 | 54 | 214 | 0.0 | 0.0 | 0.00 | 0.00 | 0.00 | 96 | 986.0 |
| 20260510111014 | 54 | 214 | 0.0 | 0.0 | 0.00 | 0.00 | 0.00 | 96 | 986.0 |
| 20260510110517 | 54 | 214 | 0.0 | 0.0 | 0.00 | 0.00 | 0.00 | 96 | 986.0 |
| 20260510110017 | 54 | 214 | 0.0 | 0.0 | 0.00 | 0.00 | 0.00 | 95 | 986.0 |
| 20260510105513 | 54 | 214 | 0.0 | 0.0 | 0.00 | 0.00 | 0.00 | 96 | 986.0 |
| 20260510105013 | 54 | 214 | 0.0 | 0.0 | 0.00 | 0.00 | 0.00 | 96 | 985.9 |
| 20260510104514 | 54 | 214 | 0.0 | 0.0 | 0.00 | 0.00 | 0.00 | 95 | 985.9 |
| 20260510104012 | 54 | 214 | 0.0 | 0.0 | 0.00 | 0.00 | 0.00 | 95 | 985.9 |
| 20260510103512 | 54 | 214 | 0.0 | 0.0 | 0.00 | 0.00 | 0.00 | 95 | 985.7 |
| 20260510103012 | 54 | 214 | 0.0 | 0.0 | 0.00 | 0.00 | 0.00 | 95 | 985.8 |
| 20260510102512 | 54 | 214 | 0.0 | 0.0 | 0.00 | 0.00 | 0.00 | 95 | 985.8 |
| 20260510102011 | 54 | 214 | 0.0 | 0.0 | 0.00 | 0.00 | 0.00 | 95 | 985.8 |
| 20260510101514 | 54 | 214 | 0.0 | 0.0 | 0.00 | 0.00 | 0.00 | 95 | 985.8 |
| 20260510101011 | 54 | 214 | 0.0 | 0.0 | 0.00 | 0.00 | 0.00 | 95 | 985.7 |
| 20260510100511 | 54 | 214 | 0.0 | 0.0 | 0.00 | 0.00 | 0.00 | 95 | 985.8 |
| 20260510100012 | 55 | 214 | 0.0 | 0.0 | 0.00 | 0.00 | 0.00 | 95 | 985.8 |
| 20260510095511 | 55 | 214 | 0.0 | 0.0 | 0.00 | 0.00 | 0.00 | 95 | 985.8 |
| 20260510095010 | 55 | 214 | 0.0 | 0.0 | 0.00 | 0.00 | 0.00 | 95 | 985.8 |
| 20260510094513 | 55 | 214 | 0.0 | 0.0 | 0.00 | 0.00 | 0.00 | 95 | 985.9 |
| 20260510094010 | 54 | 214 | 0.0 | 0.0 | 0.00 | 0.00 | 0.00 | 95 | 985.8 |
| 20260510093515 | 54 | 214 | 0.0 | 0.0 | 0.00 | 0.00 | 0.00 | 95 | 985.9 |
| 20260510093010 | 54 | 214 | 0.0 | 0.0 | 0.00 | 0.00 | 0.00 | 95 | 985.8 |
| 20260510092512 | 54 | 214 | 0.0 | 0.0 | 0.00 | 0.00 | 0.00 | 95 | 985.8 |
| 20260510092010 | 54 | 214 | 0.0 | 0.0 | 0.00 | 0.00 | 0.00 | 95 | 985.9 |
| 20260510091511 | 54 | 214 | 0.0 | 0.0 | 0.00 | 0.00 | 0.00 | 95 | 985.9 |
| 20260510091010 | 54 | 214 | 0.0 | 0.0 | 0.00 | 0.00 | 0.00 | 94 | 985.9 |
| 20260510090509 | 54 | 214 | 0.0 | 0.0 | 0.00 | 0.00 | 0.00 | 94 | 985.8 |
| 20260510090008 | 54 | 214 | 0.0 | 0.0 | 0.00 | 0.00 | 0.00 | 94 | 985.8 |
| 20260510085507 | 54 | 214 | 0.0 | 0.0 | 0.00 | 0.00 | 0.00 | 94 | 985.8 |
| 20260510085008 | 54 | 214 | 0.0 | 0.0 | 0.00 | 0.00 | 0.00 | 94 | 985.8 |
| 20260510084510 | 54 | 214 | 0.0 | 0.0 | 0.00 | 0.00 | 0.00 | 94 | 985.9 |
| 20260510084009 | 54 | 214 | 0.0 | 0.0 | 0.00 | 0.00 | 0.00 | 94 | 985.9 |
| 20260510083505 | 54 | 214 | 0.0 | 0.0 | 0.00 | 0.00 | 0.00 | 94 | 985.9 |
| 20260510083005 | 54 | 214 | 0.0 | 0.0 | 0.00 | 0.00 | 0.00 | 94 | 986.0 |
| 20260510082504 | 55 | 214 | 0.0 | 0.0 | 0.00 | 0.00 | 0.00 | 94 | 986.0 |
| 20260510082008 | 55 | 214 | 0.0 | 0.0 | 0.00 | 0.00 | 0.00 | 94 | 986.1 |
| 20260510081504 | 55 | 214 | 0.0 | 0.0 | 0.00 | 0.00 | 0.00 | 94 | 986.1 |
| 20260510081003 | 55 | 214 | 0.0 | 0.0 | 0.00 | 0.00 | 0.00 | 94 | 986.2 |
| 20260510080505 | 54 | 214 | 0.0 | 2.0 | 0.00 | 0.00 | 0.00 | 93 | 986.1 |
| 20260510080007 | 55 | 214 | 1.0 | 2.0 | 0.00 | 0.00 | 0.00 | 92 | 986.2 |
| 20260510075504 | 56 | 214 | 0.0 | 0.0 | 0.00 | 0.00 | 0.00 | 93 | 986.2 |
| 20260510075002 | 55 | 214 | 0.0 | 0.0 | 0.00 | 0.00 | 0.00 | 93 | 986.3 |
| 20260510074502 | 55 | 214 | 0.0 | 0.0 | 0.00 | 0.00 | 0.00 | 93 | 986.4 |
| 20260510074001 | 55 | 214 | 0.0 | 0.0 | 0.00 | 0.00 | 0.00 | 93 | 986.5 |
| 20260510073600 | 55 | 214 | 0.0 | 0.0 | 0.00 | 0.00 | 0.00 | 93 | 986.5 |
| 20260510073059 | 55 | 214 | 0.0 | 0.0 | 0.00 | 0.00 | 0.00 | 93 | 986.4 |
| 20260510072559 | 55 | 214 | 0.0 | 0.0 | 0.00 | 0.00 | 0.00 | 93 | 986.4 |
| 20260510072059 | 55 | 214 | 0.0 | 0.0 | 0.00 | 0.00 | 0.00 | 93 | 986.4 |
| 20260510071602 | 55 | 214 | 0.0 | 0.0 | 0.00 | 0.00 | 0.00 | 93 | 986.3 |
| 20260510071058 | 56 | 214 | 0.0 | 0.0 | 0.00 | 0.00 | 0.00 | 92 | 986.2 |
| 20260510070558 | 56 | 214 | 0.0 | 0.0 | 0.00 | 0.00 | 0.00 | 92 | 986.2 |
| 20260510070055 | 56 | 214 | 0.0 | 0.0 | 0.00 | 0.00 | 0.00 | 92 | 986.1 |
| 20260510065557 | 56 | 214 | 0.0 | 0.0 | 0.00 | 0.00 | 0.00 | 92 | 986.2 |
| 20260510065055 | 56 | 214 | 0.0 | 0.0 | 0.00 | 0.00 | 0.00 | 92 | 986.3 |
| 20260510064609 | 56 | 214 | 0.0 | 0.0 | 0.00 | 0.00 | 0.00 | 92 | 986.2 |
| 20260510064054 | 56 | 214 | 0.0 | 0.0 | 0.00 | 0.00 | 0.00 | 92 | 986.2 |
| 20260510063553 | 56 | 214 | 0.0 | 0.0 | 0.00 | 0.00 | 0.00 | 92 | 986.2 |
| 20260510063101 | 56 | 214 | 0.0 | 0.0 | 0.00 | 0.00 | 0.00 | 91 | 986.2 |
| 20260510062553 | 56 | 214 | 0.0 | 0.0 | 0.00 | 0.00 | 0.00 | 91 | 986.2 |
| 20260510062053 | 56 | 214 | 0.0 | 0.0 | 0.00 | 0.00 | 0.00 | 91 | 986.3 |
| 20260510061553 | 56 | 214 | 0.0 | 0.0 | 0.00 | 0.00 | 0.00 | 91 | 986.2 |
| 20260510061053 | 56 | 214 | 0.0 | 0.0 | 0.00 | 0.00 | 0.00 | 91 | 986.3 |
| 20260510060553 | 57 | 214 | 0.0 | 0.0 | 0.00 | 0.00 | 0.00 | 91 | 986.2 |
| 20260510060057 | 57 | 214 | 0.0 | 0.0 | 0.00 | 0.00 | 0.00 | 91 | 986.3 |
| 20260510055552 | 57 | 214 | 0.0 | 0.0 | 0.00 | 0.00 | 0.00 | 91 | 986.3 |
| 20260510055052 | 57 | 214 | 0.0 | 0.0 | 0.00 | 0.00 | 0.00 | 90 | 986.4 |
| 20260510054553 | 57 | 214 | 0.0 | 0.0 | 0.00 | 0.00 | 0.00 | 90 | 986.3 |
| 20260510054052 | 57 | 214 | 0.0 | 0.0 | 0.00 | 0.00 | 0.00 | 90 | 986.4 |
| 20260510053551 | 57 | 214 | 0.0 | 0.0 | 0.00 | 0.00 | 0.00 | 90 | 986.3 |
| 20260510053051 | 58 | 214 | 0.0 | 0.0 | 0.00 | 0.00 | 0.00 | 89 | 986.3 |
| 20260510052550 | 58 | 214 | 0.0 | 0.0 | 0.00 | 0.00 | 0.00 | 89 | 986.3 |
| 20260510052050 | 58 | 214 | 0.0 | 0.0 | 0.00 | 0.00 | 0.00 | 90 | 986.3 |
| 20260510051558 | 59 | 214 | 0.0 | 0.0 | 0.00 | 0.00 | 0.00 | 90 | 986.3 |
| 20260510051049 | 59 | 214 | 0.0 | 0.0 | 0.00 | 0.00 | 0.00 | 90 | 986.3 |
| 20260510050549 | 59 | 214 | 0.0 | 0.0 | 0.00 | 0.00 | 0.00 | 90 | 986.3 |
| 20260510050048 | 59 | 214 | 0.0 | 0.0 | 0.00 | 0.00 | 0.00 | 90 | 986.3 |
| 20260510045548 | 59 | 214 | 0.0 | 0.0 | 0.00 | 0.00 | 0.00 | 89 | 986.3 |
| 20260510045048 | 59 | 214 | 0.0 | 0.0 | 0.00 | 0.00 | 0.00 | 89 | 986.3 |
| 20260510044550 | 59 | 214 | 0.0 | 0.0 | 0.00 | 0.00 | 0.00 | 89 | 986.3 |
| 20260510044051 | 60 | 214 | 0.0 | 0.0 | 0.00 | 0.00 | 0.00 | 88 | 986.3 |
| 20260510043547 | 60 | 214 | 0.0 | 0.0 | 0.00 | 0.00 | 0.00 | 88 | 986.3 |
| 20260510043050 | 60 | 214 | 0.0 | 0.0 | 0.00 | 0.00 | 0.00 | 88 | 986.2 |
| 20260510042546 | 60 | 214 | 0.0 | 0.0 | 0.00 | 0.00 | 0.00 | 88 | 986.2 |
| 20260510042046 | 60 | 214 | 0.0 | 0.0 | 0.00 | 0.00 | 0.00 | 88 | 986.1 |
| 20260510041606 | 60 | 214 | 0.0 | 0.0 | 0.00 | 0.00 | 0.00 | 87 | 986.0 |
| 20260510041048 | 61 | 214 | 0.0 | 0.0 | 0.00 | 0.00 | 0.00 | 87 | 986.0 |
| 20260510040547 | 61 | 214 | 0.0 | 0.0 | 0.00 | 0.00 | 0.00 | 87 | 985.9 |
| 20260510040047 | 61 | 214 | 0.0 | 0.0 | 0.00 | 0.00 | 0.00 | 87 | 985.8 |
| 20260510035547 | 61 | 214 | 0.0 | 0.0 | 0.00 | 0.00 | 0.00 | 86 | 985.7 |
| 20260510035046 | 61 | 214 | 0.0 | 0.0 | 0.00 | 0.00 | 0.00 | 86 | 985.7 |
| 20260510034547 | 61 | 214 | 0.0 | 0.0 | 0.00 | 0.00 | 0.00 | 86 | 985.7 |
| 20260510034049 | 62 | 214 | 0.0 | 0.0 | 0.00 | 0.00 | 0.00 | 85 | 985.6 |
| 20260510033547 | 62 | 214 | 0.0 | 0.0 | 0.00 | 0.00 | 0.00 | 85 | 985.5 |
| 20260510033047 | 62 | 214 | 0.0 | 0.0 | 0.00 | 0.00 | 0.00 | 84 | 985.5 |
| 20260510032548 | 62 | 214 | 0.0 | 0.0 | 0.00 | 0.00 | 0.00 | 84 | 985.5 |
| 20260510032048 | 63 | 214 | 0.0 | 2.0 | 0.00 | 0.00 | 0.00 | 84 | 985.5 |
| 20260510031545 | 63 | 214 | 0.0 | 2.0 | 0.00 | 0.00 | 0.00 | 83 | 985.4 |
| 20260510031045 | 63 | 214 | 1.0 | 3.0 | 0.00 | 0.00 | 0.00 | 82 | 985.4 |
| 20260510030548 | 64 | 214 | 1.0 | 3.0 | 0.00 | 0.00 | 0.00 | 82 | 985.3 |
| 20260510030145 | 64 | 214 | 1.0 | 3.0 | 0.00 | 0.00 | 0.00 | 81 | 985.2 |
| 20260510025544 | 65 | 214 | 0.0 | 0.0 | 0.00 | 0.00 | 0.00 | 80 | 985.2 |
| 20260510025045 | 65 | 214 | 0.0 | 0.0 | 0.00 | 0.00 | 0.00 | 80 | 985.2 |
| 20260510024553 | 65 | 214 | 0.0 | 1.0 | 0.00 | 0.00 | 0.00 | 79 | 985.0 |
| 20260510024048 | 66 | 214 | 0.0 | 2.0 | 0.00 | 0.00 | 0.00 | 79 | 985.0 |
| 20260510023543 | 66 | 214 | 0.0 | 2.0 | 0.00 | 0.00 | 0.00 | 78 | 985.0 |
| 20260510023043 | 66 | 214 | 1.0 | 2.0 | 0.00 | 0.00 | 0.00 | 78 | 984.9 |
| 20260510022546 | 67 | 214 | 0.0 | 3.0 | 0.00 | 0.00 | 0.00 | 77 | 985.0 |
| 20260510022043 | 67 | 214 | 1.0 | 3.0 | 0.00 | 0.00 | 0.00 | 76 | 984.9 |
| 20260510021543 | 68 | 214 | 1.0 | 3.0 | 0.00 | 0.00 | 0.00 | 75 | 984.9 |
| 20260510021042 | 68 | 214 | 0.0 | 3.0 | 0.00 | 0.00 | 0.00 | 74 | 984.8 |
| 20260510020542 | 69 | 214 | 1.0 | 4.0 | 0.00 | 0.00 | 0.00 | 74 | 984.8 |
| 20260510020049 | 69 | 214 | 2.0 | 4.0 | 0.00 | 0.00 | 0.00 | 73 | 984.8 |
| 20260510015542 | 69 | 214 | 2.0 | 3.0 | 0.00 | 0.00 | 0.00 | 73 | 984.7 |
| 20260510015042 | 69 | 214 | 1.0 | 4.0 | 0.00 | 0.00 | 0.00 | 73 | 984.7 |
| 20260510014543 | 69 | 214 | 2.0 | 4.0 | 0.00 | 0.00 | 0.00 | 73 | 984.6 |
| 20260510014042 | 69 | 214 | 2.0 | 4.0 | 0.00 | 0.00 | 0.00 | 73 | 984.6 |
| 20260510013541 | 69 | 214 | 1.0 | 4.0 | 0.00 | 0.00 | 0.00 | 73 | 984.6 |
| 20260510013047 | 69 | 214 | 2.0 | 4.0 | 0.00 | 0.00 | 0.00 | 73 | 984.6 |
| 20260510012543 | 69 | 214 | 2.0 | 4.0 | 0.00 | 0.00 | 0.00 | 72 | 984.6 |
| 20260510012040 | 69 | 213 | 1.0 | 4.0 | 0.00 | 0.00 | 0.00 | 72 | 984.8 |
| 20260510011541 | 69 | 214 | 2.0 | 4.0 | 0.00 | 0.00 | 0.00 | 72 | 984.8 |
| 20260510011040 | 70 | 213 | 2.0 | 4.0 | 0.00 | 0.00 | 0.00 | 72 | 984.8 |
| 20260510010539 | 70 | 221 | 2.0 | 5.0 | 0.00 | 0.00 | 0.00 | 72 | 984.9 |
| 20260510010057 | 70 | 180 | 2.0 | 5.0 | 0.00 | 0.00 | 0.00 | 72 | 984.9 |
| 20260510005539 | 70 | 184 | 3.0 | 6.0 | 0.00 | 0.00 | 0.00 | 71 | 984.9 |
| 20260510005038 | 71 | 180 | 3.0 | 6.0 | 0.00 | 0.00 | 0.00 | 71 | 984.9 |
| 20260510004539 | 71 | 182 | 3.0 | 6.0 | 0.00 | 0.00 | 0.00 | 71 | 984.9 |
| 20260510004038 | 71 | 175 | 4.0 | 6.0 | 0.00 | 0.00 | 0.00 | 71 | 984.9 |
| 20260510003538 | 71 | 173 | 4.0 | 6.0 | 0.00 | 0.00 | 0.00 | 70 | 984.9 |
| 20260510003038 | 71 | 179 | 3.0 | 6.0 | 0.00 | 0.00 | 0.00 | 70 | 984.9 |
| 20260510002537 | 72 | 167 | 5.0 | 7.0 | 0.00 | 0.00 | 0.00 | 69 | 985.0 |
| 20260510002038 | 72 | 157 | 4.0 | 8.0 | 0.00 | 0.00 | 0.00 | 69 | 984.9 |
| 20260510001537 | 72 | 184 | 4.0 | 8.0 | 0.00 | 0.00 | 0.00 | 69 | 984.9 |
| 20260510001040 | 72 | 171 | 5.0 | 9.0 | 0.00 | 0.00 | 0.00 | 68 | 984.9 |
| 20260510000540 | 73 | 173 | 4.0 | 6.0 | 0.00 | 0.00 | 0.00 | 68 | 984.9 |
| 20260510000041 | 73 | 194 | 3.0 | 6.0 | 0.00 | 0.00 | 0.00 | 69 | 985.0 |
| 20260509235536 | 73 | 178 | 3.0 | 6.0 | 0.00 | 0.00 | 0.00 | 68 | 985.0 |
| 20260509235036 | 73 | 211 | 4.0 | 9.0 | 0.00 | 0.00 | 0.00 | 68 | 985.0 |
| 20260509234554 | 73 | 192 | 4.0 | 8.0 | 0.00 | 0.00 | 0.00 | 68 | 985.0 |